Time,TemperatureF,DewpointF,PressureIn,WindDirection,WindDirectionDegrees,WindSpeedMPH,WindSpeedGustMPH,Humidity,HourlyPrecipIn,Conditions,Clouds,dailyrainin,SoftwareType,DateUTC
2013-05-27 00:01:00,60.0,20.0,-100.00,SW,215,4.0,7.0,21,0.00,,,-99.99,,2013-05-27 06:01:00,
2013-05-27 00:11:00,61.0,19.0,-100.00,South,189,6.0,7.0,19,0.00,,,-99.99,,2013-05-27 06:11:00,
2013-05-27 00:21:00,59.0,21.0,-100.00,SW,216,3.0,4.0,23,0.00,,,-99.99,,2013-05-27 06:21:00,
2013-05-27 00:31:00,58.0,23.0,-100.00,NE,41,4.0,6.0,26,0.00,,,-99.99,,2013-05-27 06:31:00,
2013-05-27 00:41:00,59.0,22.0,-100.00,East,85,6.0,7.0,23,0.00,,,-99.99,,2013-05-27 06:41:00,
2013-05-27 00:52:00,57.0,21.0,-100.00,SE,126,4.0,5.0,24,0.00,,,-99.99,,2013-05-27 06:52:00,
2013-05-27 01:01:00,56.0,21.0,-100.00,SSE,161,6.0,7.0,25,0.00,,,-99.99,,2013-05-27 07:01:00,
2013-05-27 01:11:00,60.0,21.0,-100.00,SE,133,10.0,12.0,22,0.00,,,-99.99,,2013-05-27 07:11:00,
2013-05-27 01:21:00,55.0,22.0,-100.00,SE,145,11.0,12.0,28,0.00,,,-99.99,,2013-05-27 07:21:00,
2013-05-27 01:31:00,55.0,22.0,-100.00,SSE,161,10.0,12.0,28,0.00,,,-99.99,,2013-05-27 07:31:00,
2013-05-27 01:41:00,55.0,22.0,-100.00,SSE,164,9.0,10.0,27,0.00,,,-99.99,,2013-05-27 07:41:00,
2013-05-27 01:52:00,58.0,20.0,-100.00,South,189,6.0,8.0,23,0.00,,,-99.99,,2013-05-27 07:52:00,
2013-05-27 02:02:00,56.0,21.0,-100.00,SW,229,1.0,3.0,25,0.00,,,-99.99,,2013-05-27 08:02:00,
2013-05-27 02:11:00,56.0,20.0,-100.00,South,176,2.0,4.0,25,0.00,,,-99.99,,2013-05-27 08:11:00,
2013-05-27 02:21:00,56.0,21.0,-100.00,SW,229,2.0,5.0,25,0.00,,,-99.99,,2013-05-27 08:21:00,
2013-05-27 02:32:00,56.0,21.0,-100.00,WSW,251,1.0,2.0,26,0.00,,,-99.99,,2013-05-27 08:32:00,
2013-05-27 02:41:00,55.0,22.0,-100.00,South,172,2.0,7.0,27,0.00,,,-99.99,,2013-05-27 08:41:00,
2013-05-27 02:51:00,56.0,22.0,-100.00,NNW,343,2.0,4.0,26,0.00,,,-99.99,,2013-05-27 08:51:00,
2013-05-27 03:02:00,58.0,21.0,-100.00,SSW,199,9.0,10.0,24,0.00,,,-99.99,,2013-05-27 09:02:00,
2013-05-27 03:11:00,60.0,22.0,-100.00,SSW,198,12.0,13.0,23,0.00,,,-99.99,,2013-05-27 09:11:00,
2013-05-27 03:21:00,57.0,23.0,-100.00,West,265,2.0,4.0,26,0.00,,,-99.99,,2013-05-27 09:21:00,
2013-05-27 03:33:00,55.0,22.0,-100.00,SSW,198,2.0,6.0,28,0.00,,,-99.99,,2013-05-27 09:33:00,
2013-05-27 03:42:00,58.0,22.0,-100.00,SSW,196,8.0,11.0,25,0.00,,,-99.99,,2013-05-27 09:42:00,
2013-05-27 03:52:00,56.0,23.0,-100.00,WSW,256,7.0,10.0,28,0.00,,,-99.99,,2013-05-27 09:52:00,
2013-05-27 04:02:00,52.0,26.0,-100.00,SW,219,1.0,3.0,35,0.00,,,-99.99,,2013-05-27 10:02:00,
2013-05-27 04:12:00,53.0,24.0,-100.00,SSW,193,1.0,3.0,32,0.00,,,-99.99,,2013-05-27 10:12:00,
2013-05-27 04:22:00,54.0,24.0,-100.00,SW,216,1.0,2.0,31,0.00,,,-99.99,,2013-05-27 10:22:00,
2013-05-27 04:32:00,54.0,24.0,-100.00,WNW,299,2.0,3.0,31,0.00,,,-99.99,,2013-05-27 10:32:00,
2013-05-27 04:41:00,55.0,24.0,-100.00,NW,316,2.0,4.0,30,0.00,,,-99.99,,2013-05-27 10:41:00,
2013-05-27 04:52:00,54.0,25.0,-100.00,NNW,333,2.0,4.0,32,0.00,,,-99.99,,2013-05-27 10:52:00,
2013-05-27 05:02:00,53.0,24.0,-100.00,West,261,1.0,2.0,32,0.00,,,-99.99,,2013-05-27 11:02:00,
2013-05-27 05:11:00,53.0,26.0,-100.00,NNW,343,3.0,4.0,34,0.00,,,-99.99,,2013-05-27 11:11:00,
2013-05-27 05:21:00,52.0,27.0,-100.00,NNW,344,9.0,12.0,37,0.00,,,-99.99,,2013-05-27 11:21:00,
2013-05-27 05:31:00,51.0,27.0,-100.00,WNW,302,4.0,7.0,40,0.00,,,-99.99,,2013-05-27 11:31:00,
2013-05-27 05:41:00,51.0,28.0,-100.00,WNW,285,4.0,6.0,41,0.00,,,-99.99,,2013-05-27 11:41:00,
2013-05-27 05:51:00,50.0,27.0,-100.00,WNW,301,2.0,3.0,41,0.00,,,-99.99,,2013-05-27 11:51:00,
2013-05-27 06:01:00,50.0,29.0,-100.00,NE,51,2.0,4.0,44,0.00,,,-99.99,,2013-05-27 12:01:00,
2013-05-27 06:11:00,50.0,28.0,-100.00,NNE,17,5.0,7.0,43,0.00,,,-99.99,,2013-05-27 12:11:00,
2013-05-27 06:21:00,49.0,31.0,-100.00,East,97,6.0,7.0,49,0.00,,,-99.99,,2013-05-27 12:21:00,
2013-05-27 06:31:00,50.0,32.0,-100.00,NNW,344,2.0,4.0,50,0.00,,,-99.99,,2013-05-27 12:31:00,
2013-05-27 06:42:00,50.0,32.0,-100.00,NE,35,3.0,6.0,49,0.00,,,-99.99,,2013-05-27 12:42:00,
2013-05-27 06:52:00,51.0,33.0,-100.00,North,356,6.0,9.0,51,0.00,,,-99.99,,2013-05-27 12:52:00,
2013-05-27 07:01:00,52.0,35.0,-100.00,ENE,71,6.0,7.0,53,0.00,,,-99.99,,2013-05-27 13:01:00,
2013-05-27 07:11:00,52.0,36.0,-100.00,ESE,103,1.0,2.0,54,0.00,,,-99.99,,2013-05-27 13:11:00,
2013-05-27 07:21:00,51.0,35.0,-100.00,SSE,150,6.0,6.0,55,0.00,,,-99.99,,2013-05-27 13:21:00,
2013-05-27 07:32:00,52.0,36.0,-100.00,SSW,202,2.0,3.0,55,0.00,,,-99.99,,2013-05-27 13:32:00,
2013-05-27 07:41:00,52.0,35.0,-100.00,WSW,247,1.0,2.0,52,0.00,,,-99.99,,2013-05-27 13:41:00,
2013-05-27 07:52:00,54.0,36.0,-100.00,West,270,1.0,1.0,50,0.00,,,-99.99,,2013-05-27 13:52:00,
2013-05-27 08:01:00,55.0,36.0,-100.00,SSE,165,0.0,1.0,48,0.00,,,-99.99,,2013-05-27 14:01:00,
2013-05-27 08:11:00,55.0,37.0,-100.00,NE,52,4.0,7.0,50,0.00,,,-99.99,,2013-05-27 14:11:00,
2013-05-27 08:21:00,54.0,38.0,-100.00,NE,55,3.0,4.0,54,0.00,,,-99.99,,2013-05-27 14:21:00,
2013-05-27 08:31:00,56.0,38.0,-100.00,ESE,113,6.0,9.0,51,0.00,,,-99.99,,2013-05-27 14:31:00,
2013-05-27 08:41:00,55.0,37.0,-100.00,SE,138,8.0,11.0,50,0.00,,,-99.99,,2013-05-27 14:41:00,
2013-05-27 08:51:00,56.0,36.0,-100.00,SSE,164,11.0,13.0,48,0.00,,,-99.99,,2013-05-27 14:51:00,
2013-05-27 09:01:00,56.0,28.0,-100.00,South,169,14.0,20.0,34,0.00,,,-99.99,,2013-05-27 15:01:00,
2013-05-27 09:11:00,58.0,29.0,-100.00,SW,223,15.0,21.0,32,0.00,,,-99.99,,2013-05-27 15:11:00,
2013-05-27 09:21:00,59.0,20.0,-100.00,SW,234,24.0,27.0,22,0.00,,,-99.99,,2013-05-27 15:21:00,
2013-05-27 09:33:00,59.0,16.0,-100.00,SW,215,30.0,35.0,19,0.00,,,-99.99,,2013-05-27 15:33:00,
2013-05-27 09:43:00,59.0,20.0,-100.00,SSW,212,25.0,31.0,22,0.00,,,-99.99,,2013-05-27 15:43:00,
2013-05-27 09:53:00,59.0,16.0,-100.00,SW,224,24.0,29.0,18,0.00,,,-99.99,,2013-05-27 15:53:00,
2013-05-27 10:02:00,60.0,19.0,-100.00,WSW,240,21.0,29.0,21,0.00,,,-99.99,,2013-05-27 16:02:00,
2013-05-27 10:12:00,60.0,18.0,-100.00,WSW,246,21.0,27.0,19,0.00,,,-99.99,,2013-05-27 16:12:00,
2013-05-27 10:22:00,59.0,19.0,-100.00,SW,217,26.0,31.0,21,0.00,,,-99.99,,2013-05-27 16:22:00,
2013-05-27 10:33:00,60.0,20.0,-100.00,WSW,253,24.0,30.0,22,0.00,,,-99.99,,2013-05-27 16:33:00,
2013-05-27 10:42:00,60.0,21.0,-100.00,WSW,246,22.0,28.0,22,0.00,,,-99.99,,2013-05-27 16:42:00,
2013-05-27 10:52:00,60.0,20.0,-100.00,SW,232,26.0,40.0,21,0.00,,,-99.99,,2013-05-27 16:52:00,
2013-05-27 11:02:00,60.0,21.0,-100.00,SW,216,29.0,37.0,23,0.00,,,-99.99,,2013-05-27 17:02:00,
2013-05-27 11:11:00,62.0,24.0,-100.00,WSW,254,21.0,31.0,23,0.00,,,-99.99,,2013-05-27 17:11:00,
2013-05-27 11:21:00,61.0,23.0,-100.00,WSW,256,22.0,28.0,24,0.00,,,-99.99,,2013-05-27 17:21:00,
2013-05-27 11:31:00,60.0,24.0,-100.00,WSW,247,25.0,37.0,25,0.00,,,-99.99,,2013-05-27 17:31:00,
2013-05-27 11:42:00,60.0,24.0,-100.00,SW,222,27.0,33.0,25,0.00,,,-99.99,,2013-05-27 17:42:00,
2013-05-27 11:52:00,61.0,23.0,-100.00,WSW,239,24.0,29.0,23,0.00,,,-99.99,,2013-05-27 17:52:00,
2013-05-27 12:02:00,61.0,24.0,-100.00,SW,236,25.0,31.0,24,0.00,,,-99.99,,2013-05-27 18:02:00,
2013-05-27 12:11:00,62.0,24.0,-100.00,SW,227,22.0,31.0,23,0.00,,,-99.99,,2013-05-27 18:11:00,
2013-05-27 12:21:00,63.0,27.0,-100.00,WSW,240,13.0,20.0,25,0.00,,,-99.99,,2013-05-27 18:21:00,
2013-05-27 12:32:00,62.0,26.0,-100.00,SW,236,17.0,25.0,26,0.00,,,-99.99,,2013-05-27 18:32:00,
2013-05-27 12:41:00,62.0,26.0,-100.00,SW,232,21.0,32.0,25,0.00,,,-99.99,,2013-05-27 18:41:00,
2013-05-27 12:52:00,62.0,27.0,-100.00,SW,230,27.0,33.0,26,0.00,,,-99.99,,2013-05-27 18:52:00,
2013-05-27 13:01:00,63.0,28.0,-100.00,WSW,247,19.0,29.0,26,0.00,,,-99.99,,2013-05-27 19:01:00,
2013-05-27 13:11:00,63.0,26.0,-100.00,WSW,244,24.0,31.0,25,0.00,,,-99.99,,2013-05-27 19:11:00,
2013-05-27 13:21:00,62.0,27.0,-100.00,SW,229,24.0,36.0,26,0.00,,,-99.99,,2013-05-27 19:21:00,
2013-05-27 13:31:00,62.0,26.0,-100.00,WSW,250,16.0,23.0,25,0.00,,,-99.99,,2013-05-27 19:31:00,
2013-05-27 13:41:00,64.0,27.0,-100.00,WSW,253,16.0,22.0,25,0.00,,,-99.99,,2013-05-27 19:41:00,
2013-05-27 13:52:00,62.0,23.0,-100.00,WSW,254,21.0,31.0,22,0.00,,,-99.99,,2013-05-27 19:52:00,
2013-05-27 14:01:00,64.0,21.0,-100.00,WSW,240,22.0,38.0,19,0.00,,,-99.99,,2013-05-27 20:01:00,
2013-05-27 14:11:00,63.0,19.0,-100.00,WSW,243,30.0,38.0,18,0.00,,,-99.99,,2013-05-27 20:11:00,
2013-05-27 14:21:00,65.0,19.0,-100.00,WSW,258,22.0,29.0,17,0.00,,,-99.99,,2013-05-27 20:21:00,
2013-05-27 14:32:00,65.0,21.0,-100.00,SW,230,26.0,30.0,18,0.00,,,-99.99,,2013-05-27 20:32:00,
2013-05-27 14:41:00,65.0,18.0,-100.00,SW,226,20.0,26.0,16,0.00,,,-99.99,,2013-05-27 20:41:00,
2013-05-27 14:52:00,66.0,19.0,-100.00,WSW,239,16.0,23.0,16,0.00,,,-99.99,,2013-05-27 20:52:00,
2013-05-27 15:01:00,65.0,18.0,-100.00,WSW,253,21.0,29.0,16,0.00,,,-99.99,,2013-05-27 21:01:00,
2013-05-27 15:11:00,65.0,17.0,-100.00,WSW,247,22.0,30.0,16,0.00,,,-99.99,,2013-05-27 21:11:00,
2013-05-27 15:21:00,66.0,21.0,-100.00,SW,223,23.0,32.0,17,0.00,,,-99.99,,2013-05-27 21:21:00,
2013-05-27 15:32:00,65.0,21.0,-100.00,WSW,256,23.0,30.0,18,0.00,,,-99.99,,2013-05-27 21:32:00,
2013-05-27 15:42:00,66.0,18.0,-100.00,WSW,247,19.0,31.0,16,0.00,,,-99.99,,2013-05-27 21:42:00,
2013-05-27 15:53:00,65.0,19.0,-100.00,SW,236,19.0,23.0,17,0.00,,,-99.99,,2013-05-27 21:53:00,
2013-05-27 16:02:00,66.0,18.0,-100.00,WSW,257,26.0,32.0,16,0.00,,,-99.99,,2013-05-27 22:02:00,
2013-05-27 16:12:00,66.0,21.0,-100.00,WSW,244,14.0,21.0,18,0.00,,,-99.99,,2013-05-27 22:12:00,
2013-05-27 16:22:00,66.0,20.0,-100.00,WSW,243,15.0,22.0,17,0.00,,,-99.99,,2013-05-27 22:22:00,
2013-05-27 16:32:00,66.0,17.0,-100.00,WSW,237,26.0,32.0,15,0.00,,,-99.99,,2013-05-27 22:32:00,
2013-05-27 16:42:00,66.0,18.0,-100.00,WSW,241,22.0,30.0,16,0.00,,,-99.99,,2013-05-27 22:42:00,
2013-05-27 16:52:00,67.0,19.0,-100.00,WSW,243,19.0,26.0,16,0.00,,,-99.99,,2013-05-27 22:52:00,
2013-05-27 17:02:00,66.0,16.0,-100.00,WSW,246,20.0,29.0,14,0.00,,,-99.99,,2013-05-27 23:02:00,
2013-05-27 17:11:00,67.0,17.0,-100.00,WSW,243,22.0,27.0,14,0.00,,,-99.99,,2013-05-27 23:11:00,
2013-05-27 17:22:00,66.0,17.0,-100.00,SW,233,22.0,26.0,15,0.00,,,-99.99,,2013-05-27 23:22:00,
2013-05-27 17:32:00,66.0,16.0,-100.00,WSW,241,22.0,29.0,14,0.00,,,-99.99,,2013-05-27 23:32:00,
2013-05-27 17:42:00,66.0,17.0,-100.00,WSW,237,16.0,24.0,15,0.00,,,-99.99,,2013-05-27 23:42:00,
2013-05-27 17:52:00,67.0,19.0,-100.00,WSW,256,13.0,17.0,16,0.00,,,-99.99,,2013-05-27 23:52:00,
2013-05-27 18:01:00,66.0,16.0,-100.00,WSW,254,14.0,17.0,14,0.00,,,-99.99,,2013-05-28 00:01:00,
2013-05-27 18:11:00,66.0,16.0,-100.00,WSW,257,12.0,18.0,14,0.00,,,-99.99,,2013-05-28 00:11:00,
2013-05-27 18:21:00,66.0,17.0,-100.00,WSW,243,15.0,25.0,15,0.00,,,-99.99,,2013-05-28 00:21:00,
2013-05-27 18:31:00,65.0,18.0,-100.00,West,263,19.0,24.0,16,0.00,,,-99.99,,2013-05-28 00:31:00,
2013-05-27 18:41:00,65.0,17.0,-100.00,WSW,256,14.0,17.0,16,0.00,,,-99.99,,2013-05-28 00:41:00,
2013-05-27 18:51:00,64.0,17.0,-100.00,WSW,256,13.0,16.0,16,0.00,,,-99.99,,2013-05-28 00:51:00,
2013-05-27 19:01:00,65.0,18.0,-100.00,WSW,257,16.0,21.0,16,0.00,,,-99.99,,2013-05-28 01:01:00,
2013-05-27 19:11:00,65.0,17.0,-100.00,WSW,247,13.0,18.0,16,0.00,,,-99.99,,2013-05-28 01:11:00,
2013-05-27 19:21:00,63.0,18.0,-100.00,WSW,251,14.0,18.0,17,0.00,,,-99.99,,2013-05-28 01:21:00,
2013-05-27 19:31:00,63.0,17.0,-100.00,WSW,247,11.0,15.0,16,0.00,,,-99.99,,2013-05-28 01:31:00,
2013-05-27 19:41:00,63.0,19.0,-100.00,WSW,243,14.0,17.0,19,0.00,,,-99.99,,2013-05-28 01:41:00,
2013-05-27 19:52:00,61.0,19.0,-100.00,SW,233,12.0,17.0,19,0.00,,,-99.99,,2013-05-28 01:52:00,
2013-05-27 20:02:00,60.0,18.0,-100.00,WSW,239,9.0,14.0,19,0.00,,,-99.99,,2013-05-28 02:02:00,
2013-05-27 20:11:00,59.0,18.0,-100.00,SW,227,7.0,12.0,20,0.00,,,-99.99,,2013-05-28 02:11:00,
2013-05-27 20:21:00,58.0,18.0,-100.00,SW,227,9.0,11.0,20,0.00,,,-99.99,,2013-05-28 02:21:00,
2013-05-27 20:32:00,59.0,16.0,-100.00,SW,224,8.0,11.0,19,0.00,,,-99.99,,2013-05-28 02:32:00,
2013-05-27 20:41:00,58.0,16.0,-100.00,SW,234,10.0,14.0,19,0.00,,,-99.99,,2013-05-28 02:41:00,
2013-05-27 20:51:00,58.0,16.0,-100.00,SW,227,14.0,17.0,19,0.00,,,-99.99,,2013-05-28 02:51:00,
2013-05-27 21:01:00,58.0,15.0,-100.00,SW,230,13.0,19.0,18,0.00,,,-99.99,,2013-05-28 03:01:00,
2013-05-27 21:11:00,58.0,16.0,-100.00,SW,224,11.0,15.0,19,0.00,,,-99.99,,2013-05-28 03:11:00,
2013-05-27 21:21:00,58.0,17.0,-100.00,SSW,212,13.0,16.0,20,0.00,,,-99.99,,2013-05-28 03:21:00,
2013-05-27 21:33:00,58.0,17.0,-100.00,SSW,209,14.0,16.0,19,0.00,,,-99.99,,2013-05-28 03:33:00,
2013-05-27 21:43:00,58.0,17.0,-100.00,SSW,209,13.0,15.0,20,0.00,,,-99.99,,2013-05-28 03:43:00,
2013-05-27 21:53:00,57.0,17.0,-100.00,SW,219,11.0,14.0,20,0.00,,,-99.99,,2013-05-28 03:53:00,
2013-05-27 22:02:00,56.0,19.0,-100.00,WNW,295,4.0,7.0,24,0.00,,,-99.99,,2013-05-28 04:02:00,
2013-05-27 22:12:00,55.0,19.0,-100.00,SSE,152,1.0,5.0,23,0.00,,,-99.99,,2013-05-28 04:12:00,
2013-05-27 22:22:00,56.0,17.0,-100.00,WSW,239,2.0,4.0,21,0.00,,,-99.99,,2013-05-28 04:22:00,
2013-05-27 22:33:00,56.0,18.0,-100.00,West,280,2.0,4.0,22,0.00,,,-99.99,,2013-05-28 04:33:00,
2013-05-27 22:42:00,56.0,18.0,-100.00,SW,229,2.0,3.0,23,0.00,,,-99.99,,2013-05-28 04:42:00,
2013-05-27 22:52:00,55.0,19.0,-100.00,WSW,237,3.0,4.0,24,0.00,,,-99.99,,2013-05-28 04:52:00,
2013-05-27 23:02:00,54.0,19.0,-100.00,WNW,287,0.0,1.0,25,0.00,,,-99.99,,2013-05-28 05:02:00,
2013-05-27 23:12:00,53.0,21.0,-100.00,NW,312,0.0,2.0,27,0.00,,,-99.99,,2013-05-28 05:12:00,
2013-05-27 23:22:00,54.0,26.0,-100.00,NW,315,3.0,4.0,34,0.00,,,-99.99,,2013-05-28 05:22:00,
2013-05-27 23:32:00,53.0,26.0,-100.00,NNW,340,2.0,4.0,35,0.00,,,-99.99,,2013-05-28 05:32:00,
2013-05-27 23:42:00,53.0,28.0,-100.00,NNW,329,5.0,6.0,37,0.00,,,-99.99,,2013-05-28 05:42:00,
2013-05-27 23:52:00,53.0,27.0,-100.00,WNW,301,2.0,3.0,37,0.00,,,-99.99,,2013-05-28 05:52:00,